sat.trackr.live / text

‹ back to catalog

STARLINK-5863

NORAD 55922 · 2023-037J

PAYLOAD ACTIVE UNKNOWN

§ Identity

Operator
Country
US
Launch date
2023-03-17
Launch site
AFWTR
Launch vehicle
Mass (kg)
RCS (m²)

Purposes: comms

External: N2YO · Heavens-Above · Gunter

§ Orbital elements

Epoch: 2026-09-19T04:46:39.767232Z

Period
96.11 min
Inclination
70.0003°
Eccentricity
0.0003071
Mean motion
14.98330330 rev/d
Perigee alt
569.9 km
Apogee alt
574.2 km
Semi-major
6,950.2 km
B*
4.5981e-6
RAAN
176.5256°
Arg perigee
273.0464°
Mean anomaly
87.0344°
Rev number
19,247

§ Raw data

STARLINK-58631 55922U 23037J   26262.19907138 -.00000038  00000+0  45981-5 0  99972 55922  70.0003 176.5256 0003071 273.0464  87.0344 14.98330330192477

JSON: /api/v1/satellites/55922 · /tle

For live sub-satellite position, see the globe view (requires WebGL).

§ Visibility from observer

Set your observer location to see the next 7 days of passes ≥ 10°. The values pass through the URL so the page stays shareable.

No JS? Fill the form by hand. The geolocation button needs JavaScript.